AirNav   Everest Fuels
 
 1355 users online  

96WI Vette/Blust Seaplane Base
Oshkosh, Wisconsin, USA

GOING TO OSHKOSH?


FAA INFORMATION EFFECTIVE 07 NOVEMBER 2019

Location

FAA Identifier: 96WI
Lat/Long: 43-56-27.9470N 088-29-37.4060W
43-56.465783N 088-29.623433W
43.9410964,-88.4937239
(estimated)
Elevation: 750 ft. / 229 m (estimated)
Variation: 01W (1985)
From city: 5 miles W of OSHKOSH, WI
Time zone: UTC -6 (UTC -5 during Daylight Saving Time)
Zip code: 54979

Seaplane Base Operations

Seaplane Base use: Private use. Permission required prior to landing
Activation date: 02/1982
Control tower: no
ARTCC: CHICAGO CENTER
FSS: GREEN BAY FLIGHT SERVICE STATION
Attendance: UNATNDD
OPEN JULY 29 TH AUG 7 F EAA CONVENTION.
Wind indicator: no
Segmented circle: no

Seaplane Base Communications

WX ASOS at OSH (4 nm NW): PHONE 920-426-1644
WX ASOS at FLD (10 nm S): 134.0 (920-922-4444)
WX AWOS-3 at ATW (19 nm N): PHONE 920-832-2597

Nearby radio navigation aids

VOR radial/distance  VOR name  Freq  Var
OSHr136/4.0OSHKOSH VORTAC116.7502E
FAHr292/29.8FALLS VOR/DME110.0002W
BJBr334/(35.0)WEST BEND VOR109.8001W
GRBr198/39.0GREEN BAY VORTAC115.5001E

 
NDB name  Hdg/Dist  Freq  Var  ID
POBER037/4.939503WOS --- ...
JUNEAU017/32.034401WUNU ..- -. ..-

Seaplane Base Services

Runway Information

Runway 7/25

Dimensions: 1300 x 60 ft. / 396 x 18 m
Surface: turf
RUNWAY 7  RUNWAY 25
Traffic pattern: leftleft

Runway N/S

Dimensions: 10000 x 4000 ft. / 3048 x 1219 m
Surface: water
RUNWAY N  RUNWAY S
Traffic pattern: leftleft

Seaplane Base Ownership and Management from official FAA records

Ownership: Privately-owned
Owner: JOHN VETTE & BURLEIGH BLUST
5050 LAKE ROAD
OSHKOSH, WI 54902
Phone 920-233-3732
Manager: JOHN VETTE & BURLEIGH BLUST
5050 LAKE ROAD
OSHKOSH, WI 54902
Phone 414-231-7370

Additional Remarks

FOR CD CTC CHICAGO ARTCC AT 630-906-8921.

Instrument Procedures

There are no published instrument procedures at 96WI.

Some nearby airports with instrument procedures:

KOSH - Wittman Regional Airport (4 nm NW)
KFLD - Fond Du Lac County Airport (10 nm S)
8D1 - New Holstein Municipal Airport (16 nm E)
KATW - Appleton International Airport (19 nm N)
KSBM - Sheboygan County Memorial Airport (30 nm E)
 
Loc | Ops | Rwys | IFR | FBO | Links
Com | Nav | Svcs | Stats | Notes
Area around 96WI (Vette/Blust Seaplane Base)
 
Road maps at: MapQuest Bing Google
 
Aerial photo
WARNING: Photo may not be current or correct
Aerial photo of 96WI (Vette/Blust Seaplane Base)
Do you have a better or more recent aerial photo of Vette/Blust Seaplane Base that you would like to share? If so, please send us your photo.

 
Sectional chart

 
Airport distance calculator
Flying to Vette/Blust Seaplane Base? Find the distance to fly.

From to 96WI

Sunrise and sunset
Times for 12-Nov-2019
 Local
(UTC-6)
 Zulu
(UTC)
Morning civil twilight06:1512:15
Sunrise06:4612:46
Sunset16:3022:30
Evening civil twilight17:0123:01

Current date and time
Zulu (UTC)  12-Nov-2019 21:18:57
Local (UTC-6)  12-Nov-2019 15:18:57
 
METAR
KOSH 
3nm NW 
122053Z VRB05KT 10SM CLR M08/M18 A3038 RMK AO2 SLP314 T10781178 56016
KFLD 
10nm S 
122053Z AUTO 22008KT 10SM CLR M07/M17 A3039 RMK AO2 SLP309 T10721172 56015
KATW 
19nm N 
122045Z 24008KT 10SM SKC M08/M21 A3035
TAF
KATW 
19nm N 
121720Z 1218/1318 29010G18KT P6SM SKC FM122300 23004KT P6SM SKC FM130600 19007KT P6SM BKN200 FM131000 19010G16KT P6SM OVC100 FM131600 19013G23KT P6SM -SN OVC050
NOTAMs
Click for the latest NOTAMs
NOTAMs are issued by the DoD/FAA and will open in a separate window not controlled by AirNav.

 

 
 

Would you like to see your business listed on this page?

 If your business provides an interesting product or service to pilots, flight crews, aircraft, or users of the Vette/Blust Seaplane Base, you should consider listing it here.  To start the listing process, click on the button below
 
Add a business
 

Other Pages about Vette/Blust Seaplane Base

Update a link
 
Copyright © AirNav, LLC. All rights reserved. Privacy Policy  Contact